This is the latest recevied weather packets stored in our database for station/object SP1BMW-13. If no packets are shown the sender has not sent any weather packets the latest 10 day(s).
| Time | Temp. | Humidity | Pressure | Rain* | Wind** | Luminosity | Snow |
|---|---|---|---|---|---|---|---|
| 1787461331 | 13.33° C | 86% | 1015.9 hPa | 0 mm | 0 m/s | 42 W/m² | - |
| 1787461269 | 13.33° C | 87% | 1015.9 hPa | 0 mm | 0 m/s | 49 W/m² | - |
| 1787461209 | 13.33° C | 88% | 1015.9 hPa | 0 mm | 0 m/s | 49 W/m² | - |
| 1787461150 | 13.33° C | 88% | 1015.8 hPa | 0 mm | 0 m/s | 47 W/m² | - |
| 1787461089 | 13.33° C | 88% | 1015.9 hPa | 0 mm | 0 m/s | 46 W/m² | - |
| 1787461030 | 12.78° C | 89% | 1015.8 hPa | 0 mm | 0 m/s | 42 W/m² | - |
| 1787460969 | 12.78° C | 89% | 1016 hPa | 0 mm | 0 m/s | 40 W/m² | - |
| 1787460909 | 12.78° C | 90% | 1016 hPa | 0 mm | 0 m/s | 37 W/m² | - |
| 1787460849 | 12.78° C | 91% | 1015.8 hPa | 0 mm | 0 m/s | 37 W/m² | - |
| 1787460790 | 12.78° C | 91% | 1016 hPa | 0 mm | 0.45 m/s, 148° | 37 W/m² | - |
| 1787460730 | 12.22° C | 91% | 1015.9 hPa | 0 mm | 0 m/s | 36 W/m² | - |
| 1787460670 | 12.22° C | 91% | 1015.9 hPa | 0 mm | 0.45 m/s, 194° | 35 W/m² | - |
| 1787460610 | 12.22° C | 92% | 1015.8 hPa | 0 mm | 0.89 m/s, 221° | 34 W/m² | - |
| 1787460550 | 12.22° C | 92% | 1015.8 hPa | 0 mm | 0.45 m/s, 158° | 31 W/m² | - |
| 1787460490 | 12.22° C | 93% | 1015.7 hPa | 0 mm | 0 m/s | 30 W/m² | - |
| 1787460430 | 12.22° C | 93% | 1015.7 hPa | 0 mm | 0.45 m/s, 201° | 29 W/m² | - |
| 1787460369 | 11.67° C | 94% | 1015.8 hPa | 0 mm | 0.45 m/s, 207° | 28 W/m² | - |
| 1787460309 | 11.67° C | 94% | 1015.9 hPa | 0 mm | 0 m/s | 27 W/m² | - |
| 1787460249 | 11.67° C | 94% | 1015.8 hPa | 0 mm | 0 m/s | 26 W/m² | - |
| 1787460190 | 11.67° C | 95% | 1015.8 hPa | 0 mm | 0 m/s | 25 W/m² | - |
| 1787460129 | 11.67° C | 95% | 1015.8 hPa | 0 mm | 0.45 m/s, 228° | 24 W/m² | - |
| 1787460070 | 11.67° C | 95% | 1015.9 hPa | 0 mm | 0.45 m/s, 190° | 24 W/m² | - |
| 1787460009 | 11.67° C | 95% | 1015.8 hPa | 0 mm | 0 m/s | 23 W/m² | - |
| 1787459950 | 11.67° C | 95% | 1015.7 hPa | 0 mm | 0.45 m/s, 165° | 20 W/m² | - |
| 1787459889 | 11.67° C | 95% | 1015.8 hPa | 0 mm | 0 m/s | 19 W/m² | - |
* Rain latest hour (hover to see other rain measurements)
** Current wind speed in m/s (hover to see current wind gust speed)